| time (UTC) | temp F | wind direction | speed MPH | gust MPH | rain 1hr in | rain 24hr in | rain mn in | humidity % | barometer mb |
| 20260906000112 | 93 | 241 | 3.0 | 7.0 | 0.00 | 0.00 | 0.00 | 26 | 1011.9 |
| 20260905234613 | 93 | 247 | 3.0 | 6.0 | 0.00 | 0.00 | 0.00 | 28 | 1011.9 |
| 20260905233101 | 93 | 321 | 2.0 | 5.0 | 0.00 | 0.00 | 0.00 | 27 | 1011.8 |
| 20260905231600 | 93 | 287 | 3.0 | 7.0 | 0.00 | 0.00 | 0.00 | 28 | 1011.8 |
| 20260905230130 | 94 | 266 | 2.0 | 9.0 | 0.00 | 0.00 | 0.00 | 29 | 1011.9 |
| 20260905224602 | 94 | 203 | 3.0 | 7.0 | 0.00 | 0.00 | 0.00 | 29 | 1011.9 |
| 20260905223101 | 94 | 280 | 3.0 | 8.0 | 0.00 | 0.00 | 0.00 | 31 | 1011.9 |
| 20260905221603 | 94 | 208 | 3.0 | 9.0 | 0.00 | 0.00 | 0.00 | 29 | 1012.0 |
| 20260905220056 | 94 | 278 | 3.0 | 8.0 | 0.00 | 0.00 | 0.00 | 28 | 1012.1 |
| 20260905214554 | 94 | 257 | 4.0 | 9.0 | 0.00 | 0.00 | 0.00 | 26 | 1012.2 |
| 20260905213101 | 95 | 222 | 2.0 | 7.0 | 0.00 | 0.00 | 0.00 | 30 | 1012.4 |
| 20260905211558 | 96 | 219 | 2.0 | 6.0 | 0.00 | 0.00 | 0.00 | 20 | 1012.5 |
| 20260905204602 | 95 | 212 | 0.0 | 6.0 | 0.00 | 0.00 | 0.00 | 18 | 1012.9 |
| 20260905203102 | 94 | 181 | 2.0 | 5.0 | 0.00 | 0.00 | 0.00 | 16 | 1013.0 |
| 20260905201608 | 93 | 248 | 3.0 | 8.0 | 0.00 | 0.00 | 0.00 | 15 | 1013.2 |
| 20260905200105 | 93 | 265 | 2.0 | 5.0 | 0.00 | 0.00 | 0.00 | 16 | 1013.4 |
| 20260905194602 | 91 | 13 | 0.0 | 4.0 | 0.00 | 0.00 | 0.00 | 20 | 1013.4 |
| 20260905193112 | 90 | 53 | 1.0 | 4.0 | 0.00 | 0.00 | 0.00 | 22 | 1013.8 |
| 20260905191554 | 89 | 206 | 1.0 | 3.0 | 0.00 | 0.00 | 0.00 | 21 | 1014.1 |
| 20260905190100 | 88 | 224 | 0.0 | 4.0 | 0.00 | 0.00 | 0.00 | 21 | 1014.0 |
| 20260905184604 | 88 | 189 | 1.0 | 4.0 | 0.00 | 0.00 | 0.00 | 21 | 1014.1 |
| 20260905183106 | 87 | 0 | 0.0 | 2.0 | 0.00 | 0.00 | 0.00 | 24 | 1014.1 |
| 20260905181601 | 86 | 330 | 2.0 | 3.0 | 0.00 | 0.00 | 0.00 | 25 | 1014.2 |
| 20260905180100 | 85 | 187 | 1.0 | 3.0 | 0.00 | 0.00 | 0.00 | 26 | 1014.4 |
| 20260905174613 | 84 | 0 | 1.0 | 2.0 | 0.00 | 0.00 | 0.00 | 28 | 1014.4 |
| 20260905173054 | 81 | 189 | 1.0 | 2.0 | 0.00 | 0.00 | 0.00 | 30 | 1014.3 |
| 20260905171607 | 80 | 0 | 0.0 | 2.0 | 0.00 | 0.00 | 0.00 | 33 | 1014.1 |
| 20260905170057 | 79 | 0 | 1.0 | 2.0 | 0.00 | 0.00 | 0.00 | 37 | 1014.1 |
| 20260905164554 | 77 | 307 | 0.0 | 1.0 | 0.00 | 0.00 | 0.00 | 37 | 1014.1 |
| 20260905163056 | 76 | 45 | 0.0 | 1.0 | 0.00 | 0.00 | 0.00 | 38 | 1014.0 |
| 20260905161555 | 74 | 49 | 1.0 | 2.0 | 0.00 | 0.00 | 0.00 | 38 | 1014.0 |
| 20260905160055 | 73 | 0 | 0.0 | 0.0 | 0.00 | 0.00 | 0.00 | 44 | 1014.2 |
| 20260905154608 | 71 | 0 | 0.0 | 1.0 | 0.00 | 0.00 | 0.00 | 49 | 1014.2 |
| 20260905153101 | 69 | 0 | 0.0 | 2.0 | 0.00 | 0.00 | 0.00 | 51 | 1014.1 |
| 20260905151601 | 67 | 0 | 0.0 | 2.0 | 0.00 | 0.00 | 0.00 | 55 | 1014.0 |
| 20260905150105 | 64 | 0 | 0.0 | 1.0 | 0.00 | 0.00 | 0.00 | 63 | 1013.9 |
| 20260905144554 | 60 | 0 | 0.0 | 0.0 | 0.00 | 0.00 | 0.00 | 75 | 1013.7 |
| 20260905143103 | 58 | 0 | 0.0 | 1.0 | 0.00 | 0.00 | 0.00 | 82 | 1013.6 |
| 20260905141556 | 56 | 0 | 0.0 | 0.0 | 0.00 | 0.00 | 0.00 | 85 | 1013.4 |
| 20260905134559 | 55 | 0 | 0.0 | 0.0 | 0.00 | 0.00 | 0.00 | 85 | 1013.3 |
| 20260905133100 | 55 | 0 | 0.0 | 0.0 | 0.00 | 0.00 | 0.00 | 85 | 1013.0 |
| 20260905131601 | 55 | 0 | 0.0 | 0.0 | 0.00 | 0.00 | 0.00 | 86 | 1012.9 |
| 20260905130101 | 55 | 0 | 0.0 | 0.0 | 0.00 | 0.00 | 0.00 | 86 | 1013.1 |
| 20260905124603 | 55 | 0 | 0.0 | 0.0 | 0.00 | 0.00 | 0.00 | 87 | 1012.7 |
| 20260905123101 | 55 | 0 | 0.0 | 1.0 | 0.00 | 0.00 | 0.00 | 87 | 1012.7 |
| 20260905121603 | 55 | 0 | 0.0 | 0.0 | 0.00 | 0.00 | 0.00 | 86 | 1012.7 |
| 20260905120100 | 55 | 0 | 0.0 | 0.0 | 0.00 | 0.00 | 0.00 | 86 | 1012.6 |
| 20260905114556 | 56 | 0 | 0.0 | 0.0 | 0.00 | 0.00 | 0.00 | 85 | 1012.6 |
| 20260905113104 | 56 | 0 | 0.0 | 0.0 | 0.00 | 0.00 | 0.00 | 85 | 1012.5 |
| 20260905111559 | 56 | 0 | 0.0 | 0.0 | 0.00 | 0.00 | 0.00 | 85 | 1012.6 |
| 20260905110055 | 56 | 0 | 0.0 | 0.0 | 0.00 | 0.00 | 0.00 | 84 | 1012.6 |
| 20260905104554 | 57 | 0 | 0.0 | 0.0 | 0.00 | 0.00 | 0.00 | 84 | 1012.7 |
| 20260905103103 | 57 | 0 | 0.0 | 0.0 | 0.00 | 0.00 | 0.00 | 83 | 1012.6 |
| 20260905101602 | 57 | 0 | 0.0 | 1.0 | 0.00 | 0.00 | 0.00 | 83 | 1012.7 |
| 20260905094555 | 58 | 0 | 0.0 | 0.0 | 0.00 | 0.00 | 0.00 | 83 | 1012.7 |
| 20260905093101 | 58 | 0 | 0.0 | 1.0 | 0.00 | 0.00 | 0.00 | 83 | 1012.8 |
| 20260905091602 | 58 | 0 | 0.0 | 0.0 | 0.00 | 0.00 | 0.00 | 83 | 1012.8 |
| 20260905090054 | 58 | 0 | 0.0 | 0.0 | 0.00 | 0.00 | 0.00 | 84 | 1012.9 |
| 20260905084556 | 59 | 0 | 0.0 | 0.0 | 0.00 | 0.00 | 0.00 | 84 | 1013.1 |
| 20260905083057 | 59 | 0 | 0.0 | 0.0 | 0.00 | 0.00 | 0.00 | 83 | 1013.2 |
| 20260905081557 | 59 | 0 | 0.0 | 1.0 | 0.00 | 0.00 | 0.00 | 84 | 1013.3 |
| 20260905080054 | 59 | 0 | 0.0 | 0.0 | 0.00 | 0.00 | 0.00 | 85 | 1013.5 |
| 20260905074554 | 60 | 0 | 0.0 | 0.0 | 0.00 | 0.00 | 0.00 | 84 | 1013.8 |
| 20260905073059 | 60 | 0 | 0.0 | 0.0 | 0.00 | 0.00 | 0.00 | 83 | 1013.8 |
| 20260905071557 | 60 | 0 | 0.0 | 0.0 | 0.00 | 0.00 | 0.00 | 83 | 1013.8 |
| 20260905070055 | 61 | 0 | 0.0 | 0.0 | 0.00 | 0.00 | 0.00 | 83 | 1013.8 |
| 20260905064559 | 61 | 0 | 0.0 | 0.0 | 0.00 | 0.00 | 0.00 | 82 | 1013.9 |
| 20260905063057 | 61 | 0 | 0.0 | 0.0 | 0.00 | 0.00 | 0.00 | 82 | 1013.8 |
| 20260905061607 | 61 | 0 | 0.0 | 0.0 | 0.00 | 0.00 | 0.00 | 81 | 1013.6 |
| 20260905060100 | 62 | 0 | 0.0 | 0.0 | 0.00 | 0.00 | 0.00 | 80 | 1013.4 |
| 20260905054600 | 62 | 0 | 0.0 | 0.0 | 0.00 | 0.00 | 0.00 | 80 | 1013.6 |
| 20260905053057 | 62 | 0 | 0.0 | 0.0 | 0.00 | 0.00 | 0.00 | 80 | 1013.6 |
| 20260905051601 | 63 | 0 | 0.0 | 0.0 | 0.00 | 0.00 | 0.00 | 79 | 1013.5 |
| 20260905050054 | 63 | 0 | 0.0 | 0.0 | 0.00 | 0.00 | 0.00 | 78 | 1013.5 |
| 20260905044601 | 64 | 0 | 0.0 | 0.0 | 0.00 | 0.00 | 0.00 | 77 | 1013.6 |
| 20260905043100 | 64 | 0 | 0.0 | 0.0 | 0.00 | 0.00 | 0.00 | 76 | 1013.5 |
| 20260905041608 | 65 | 0 | 0.0 | 0.0 | 0.00 | 0.00 | 0.00 | 75 | 1013.3 |
| 20260905040105 | 66 | 0 | 0.0 | 0.0 | 0.00 | 0.00 | 0.00 | 74 | 1013.2 |
| 20260905034604 | 67 | 0 | 0.0 | 1.0 | 0.00 | 0.00 | 0.00 | 72 | 1013.1 |
| 20260905033108 | 67 | 0 | 0.0 | 0.0 | 0.00 | 0.00 | 0.00 | 69 | 1013.0 |
| 20260905031604 | 69 | 0 | 0.0 | 0.0 | 0.00 | 0.00 | 0.00 | 68 | 1012.8 |
| 20260905030109 | 70 | 0 | 0.0 | 2.0 | 0.00 | 0.00 | 0.00 | 66 | 1012.7 |
| 20260905024557 | 71 | 0 | 0.0 | 3.0 | 0.00 | 0.00 | 0.00 | 64 | 1012.4 |
| 20260905023056 | 72 | 0 | 0.0 | 4.0 | 0.00 | 0.00 | 0.00 | 62 | 1012.4 |
| 20260905021555 | 73 | 281 | 1.0 | 3.0 | 0.00 | 0.00 | 0.00 | 58 | 1012.5 |
| 20260905020111 | 75 | 258 | 0.0 | 3.0 | 0.00 | 0.00 | 0.00 | 53 | 1012.3 |
| 20260905014603 | 77 | 248 | 1.0 | 3.0 | 0.00 | 0.00 | 0.00 | 49 | 1012.2 |
| 20260905013108 | 80 | 261 | 1.0 | 3.0 | 0.00 | 0.00 | 0.00 | 41 | 1012.2 |
| 20260905011628 | 80 | 273 | 1.0 | 4.0 | 0.00 | 0.00 | 0.00 | 39 | 1012.3 |
| 20260905010104 | 81 | 0 | 0.0 | 5.0 | 0.00 | 0.00 | 0.00 | 38 | 1012.2 |
| 20260905004600 | 82 | 248 | 1.0 | 3.0 | 0.00 | 0.00 | 0.00 | 37 | 1012.3 |
| 20260905003053 | 82 | 249 | 1.0 | 5.0 | 0.00 | 0.00 | 0.00 | 33 | 1012.2 |
| 20260905001602 | 83 | 283 | 2.0 | 6.0 | 0.00 | 0.00 | 0.00 | 35 | 1012.2 |